Location: Bergnerzell
(49.1816°N, 10.2565°E)
Time: 02:23:31
(UTC+00:00)

Cosmos 2322 Rocket - Pass Details

Date: 23 May 2024
Orbit: 832 x 850 km, 71.0° (Epoch: 19 June)

Event Time Altitude Azimuth Distance (km) Brightness Sun altitude
Rises 00:51:10 0° 333° (NNW) 3,400 5.9 -17.0°
Reaches altitude 10° 00:53:40 10° 337° (NNW) 2,465 5.2 -16.9°
Maximum altitude 00:59:15 59° 57° (ENE) 967 2.8 -16.5°
Drops below altitude 10° 01:04:50 10° 137° (SE) 2,463 4.4 -16.1°
Sets 01:07:19 0° 141° (SE) 3,396 5.1 -15.9°
